Weather History for Boscobel, WI

Change the Weather History Date:

Saturday, January 19, 2013

  Actual Average (KPDC) Record (KPDC)
Temperature  
Mean Temperature 34 °F -  
Max Temperature 50 °F 30 °F 50 °F (1981)
Min Temperature 12 °F 8 °F -25 °F (1970)
Degree Days  
Heating Degree Days 31    
Moisture  
Dew Point 25 °F    
Average Humidity 66    
Maximum Humidity 85    
Minimum Humidity 42    
Precipitation  
Precipitation 0.00 in - - ()
Sea Level Pressure  
Sea Level Pressure 29.84 in    
Wind  
Wind Speed 7 mph (WSW)    
Max Wind Speed 23 mph    
Max Gust Speed 46 mph    
Visibility 10 miles    
Events      
Averages and records for this station are not official NWS values.
T = Trace of Precipitation, MM = Missing Value Source: NWS Daily Summary

Daily Weather History Graph

Daily Weather History Graph

Search for Another Location

Airport:

Trip Planner

Search our weather history database for the weather conditions in past years. The results will help you decide how hot, cold, wet, or windy it might be!

Date:

Astronomy

Jan. 19, 2013 Rise Set
Actual Time 7:29 AM CST 4:58 PM CST
Civil Twilight 6:57 AM CST 5:29 PM CST
Nautical Twilight 6:23 AM CST 6:04 PM CST
Astronomical Twilight 5:49 AM CST 6:38 PM CST
Moon 11:26 AM CST 1:01 AM CST
Length of Visible Light 10h 31m
Length of Day
9h 29m
First Quarter, 57% of the Moon is Illuminated
Jan 19
First Quarter
Jan 26
Full
Feb 3
Last Quarter
Feb 10
New
Feb 17
First Quarter

Hourly Weather History & Observations

Time (CST) Temp. Windchill Dew Point Humidity Pressure Visibility Wind Dir Wind Speed Gust Speed Precip Events Conditions
12:53 AM 36.0 °F 31.1 °F 30.0 °F 79% 29.85 in 10.0 mi SW 5.8 mph - N/A   Clear
1:53 AM 35.1 °F 29.3 °F 30.0 °F 82% 29.86 in 10.0 mi SSW 6.9 mph - N/A   Clear
2:53 AM 36.0 °F - 30.9 °F 82% 29.85 in 10.0 mi Calm Calm - N/A   Clear
3:53 AM 35.1 °F - 30.0 °F 82% 29.83 in 10.0 mi Calm Calm - N/A   Mostly Cloudy
4:53 AM 34.0 °F - 30.0 °F 85% 29.82 in 10.0 mi Calm Calm - N/A   Overcast
5:53 AM 34.0 °F - 30.0 °F 85% 29.82 in 10.0 mi Calm Calm - N/A   Mostly Cloudy
6:53 AM 34.0 °F - 30.0 °F 85% 29.81 in 10.0 mi Calm Calm - N/A   Mostly Cloudy
7:53 AM 37.0 °F 33.3 °F 30.9 °F 79% 29.80 in 10.0 mi SW 4.6 mph - N/A   Overcast
8:53 AM 37.9 °F 34.4 °F 32.0 °F 79% 29.79 in 10.0 mi SSW 4.6 mph - N/A   Overcast
9:53 AM 39.9 °F 35.8 °F 32.0 °F 73% 29.78 in 10.0 mi SSW 5.8 mph - N/A   Overcast
10:53 AM 41.0 °F 35.8 °F 32.0 °F 70% 29.77 in 10.0 mi SW 8.1 mph - N/A   Partly Cloudy
11:53 AM 45.0 °F 40.1 °F 32.0 °F 60% 29.75 in 10.0 mi WSW 9.2 mph - N/A   Clear
12:53 PM 48.9 °F - 32.0 °F 52% 29.72 in 10.0 mi SW 9.2 mph - N/A   Clear
1:53 PM 50.0 °F - 32.0 °F 50% 29.73 in 10.0 mi WSW 10.4 mph 18.4 mph N/A   Scattered Clouds
2:53 PM 50.0 °F - 30.9 °F 48% 29.72 in 10.0 mi WSW 10.4 mph 19.6 mph N/A   Mostly Cloudy
3:53 PM 46.9 °F - 30.9 °F 54% 29.76 in 10.0 mi West 13.8 mph 21.9 mph N/A   Partly Cloudy
4:53 PM 44.1 °F 37.4 °F 30.0 °F 58% 29.79 in 10.0 mi West 13.8 mph 23.0 mph N/A   Mostly Cloudy
6:53 PM 35.1 °F 23.8 °F 14.0 °F 42% 29.87 in 10.0 mi West 20.7 mph 46.0 mph N/A   Unknown
7:53 PM 25.0 °F 10.2 °F 10.0 °F 53% 29.94 in 10.0 mi West 21.9 mph 31.1 mph N/A   Clear
8:53 PM 21.9 °F 5.8 °F 7.0 °F 53% 29.98 in 10.0 mi WNW 23.0 mph 36.8 mph N/A   Scattered Clouds
9:53 PM 18.0 °F 5.4 °F 3.9 °F 54% 30.04 in 10.0 mi West 11.5 mph 27.6 mph N/A   Clear
11:53 PM 12.9 °F -2.8 °F -0.0 °F 56% 30.14 in 10.0 mi WNW 15.0 mph 21.9 mph N/A   Clear